Regional Weather Roundup
Issued by NWS

Home | Current Version | Previous Version | Text Only | Print | Product List | Glossary Off
Versions: 1 2 3 4 5 6 7 8 9 10 11 12 13 14 15 16 17 18 19 20 21 22 23 24 25 26 27 28 29 30 31 32 33 34 35 36 37 38 39 40 41 42 43 44 45 46 47 48 49 50

000
ASUS43 KLOT 022322
RWRIL

ILLINOIS REGIONAL WEATHER ROUNDUP
NATIONAL WEATHER SERVICE CHICAGO/ROMEOVILLE IL
600 PM CDT TUE JUN 02 2015

NOTE: "FAIR" INDICATES FEW OR NO CLOUDS BELOW 12,000 FEET WITH NO
SIGNIFICANT WEATHER AND/OR OBSTRUCTIONS TO VISIBILITY.

* THESE STATIONS ARE NOT UNDER NWS QUALITY CONTROL. THEY ALSO MAY NOT
  REPORT WEATHER SUCH AS PRECIPITATION OR FOG.

ILZ001-002-007-009-015-016-024-030000-
NORTHWEST ILLINOIS

CITY           SKY/WX    TMP DP  RH WIND       PRES   REMARKS
MOLINE         MOSUNNY   73  50  44 S7        30.03F
STERLING*      SUNNY     73  46  38 SE5       30.05F
SAVANNA*       MOSUNNY   73  48  42 S6        30.04F
$$

ILZ003-004-008-010-011-017-018-030000-
NORTH CENTRAL ILLINOIS

CITY           SKY/WX    TMP DP  RH WIND       PRES   REMARKS
ROCKFORD       PTSUNNY   73  45  36 S7        30.07F
FREEPORT*      SUNNY     72  46  40 SE9       30.07F
ROCHELLE*      MOSUNNY   72  43  35 SE8       30.07F
DE KALB*       SUNNY     69  47  46 SE7       30.07F
PERU*          MOSUNNY   73  41  31 SE7       30.07S
$$

ILZ005-006-012>014-019>023-030000-
NORTHEAST ILLINOIS

CITY           SKY/WX    TMP DP  RH WIND       PRES   REMARKS
CHICAGO-OHARE  MOSUNNY   69  46  43 E8        30.07F
CHICAGO-MIDWAY MOSUNNY   69  47  45 E10       30.08F
AURORA         SUNNY     74  44  34 SE7       30.07F
LANSING*       SUNNY     66  45  46 NE9       30.09F
JOLIET*        SUNNY     73  51  45 SE7       30.07F
WAUKEGAN       SUNNY     62  45  53 E7        30.09F
DUPAGE AIRPORT SUNNY     71  46  40 S5        30.06F
KANKAKEE*      SUNNY     71  51  49 E7        30.08F
WHEELING       SUNNY     66  46  48 SE9       30.10F
MORRIS*        SUNNY     73  44  35 S9        30.06S
ROMEOVILLE*    SUNNY     71  45  39 S6        30.07F
NORTHERLY ISL    N/A     58  50  75 N3          N/A
$$

LMZ740>746-030000-
SOUTHERN LAKE MICHIGAN

STATION/POSITION SKY/WX   TEMP    WIND        PRES    VSBY  WAVE
                          AIR SEA DIR/SP/G                  HT/PER
                          (F)     (DEG/KT/KT) (MB)    (MI)  (FT/S)
SOUTHERN BUOY              45 39  350/  6/  6 1020.2F
HARRISON CRIB              55      40/  8/  9   N/A
BURNHAM HARBOR             58      10/  6/  7   N/A
CALUMET HARBOR             59      30/  7/  9   N/A
BURNS HARBOR                       50/  9/ 10 1020.0F
MICHIGAN CITY              55      20/ 11/ 13   N/A
MICHIGAN CITY 6N           54 56   60/ 10/ 12   N/A           1
ST. JOSEPH                 55 56   50/ 12/ 12   N/A           1
$$

ILZ025>027-034>036-040-047-049-050-058-095>099-030000-
WEST-CENTRAL ILLINOIS

CITY           SKY/WX    TMP DP  RH WIND       PRES   REMARKS
QUINCY         MOSUNNY   71  54  54 S5        30.04F
GALESBURG*     MOSUNNY   71  51  49 SE5       30.05F
MACOMB*        MOSUNNY   73  54  51 SE5       30.06F
JACKSONVILLE*  MOSUNNY   74  57  55 SE7       30.05S
PITTSFIELD*    MOSUNNY   72  56  57 S3        30.06S
$$

ILZ028>032-037-038-041>044-048-051>054-059>061-030000-
CENTRAL ILLINOIS

CITY           SKY/WX    TMP DP  RH WIND       PRES   REMARKS
PONTIAC        SUNNY     72  49  43 E8        30.07F
BLOOMINGTON    SUNNY     73  52  47 E5        30.08S
DECATUR        SUNNY     74  55  51 VRB5      30.05S
PEORIA         SUNNY     73  50  44 SE8       30.05F
LACON*         SUNNY     73  49  42 E7        30.05S
LINCOLN*       SUNNY     74  53  46 E6        30.03F
SPRINGFIELD    MOSUNNY   74  56  53 SE6       30.05F
TAYLORVILLE    MOSUNNY   70  55  60 CALM      30.05S
$$

ILZ033-039-045-046-055>057-062-063-030000-
EAST-CENTRAL ILLINOIS

CITY           SKY/WX    TMP DP  RH WIND       PRES   REMARKS
CHAMPAIGN      SUNNY     73  54  51 NE3       30.06S
DANVILLE*      SUNNY     71  51  49 E6        30.04F
RANTOUL*       SUNNY     74  54  49 E6        30.07S
MATTOON        SUNNY     70  56  61 SE5       30.05S
PARIS*         SUNNY     73  55  53 NE7       30.06S
$$

ILZ079-100>102-030000-
SOUTHWEST ILLINOIS

CITY           SKY/WX    TMP DP  RH WIND       PRES   REMARKS
ALTON          MOSUNNY   72  63  73 SE5       30.05S
BELLEVILLE     SUNNY     68  58  69 SE5       30.04F
CAHOKIA*       MOSUNNY   72  57  59 VRB6      30.04S
SPARTA*        CLOUDY    65  57  76 CALM      30.06F
$$

ILZ064>066-069>071-074>076-080>082-084>086-088>090-092>094-030000-
SOUTH-CENTRAL ILLINOIS

CITY           SKY/WX    TMP DP  RH WIND       PRES   REMARKS
CARBONDALE     CLOUDY    64  56  75 E5        30.06F
CAIRO*         CLOUDY    65  58  80 N5        30.05F
EFFINGHAM*     MOSUNNY   71  53  53 E3        30.07S
MARION         CLOUDY    64  59  82 MISG      30.07
MT. VERNON     CLOUDY    64  54  68 SE3       30.07F
CENTRALIA*     CLOUDY    70  54  55 E5        30.06F
SALEM*         MOSUNNY   69  57  65 E3        30.06F
$$

ILZ067-068-072-073-078-083-087-091-030000-
SOUTHEAST ILLINOIS

CITY           SKY/WX    TMP DP  RH WIND       PRES   REMARKS
LAWRENCEVILLE  MOSUNNY   72  56  57 CALM      30.05F
FLORA*         MOSUNNY   67  56  67 CALM      30.07S
FAIRFIELD*     CLOUDY    65  56  74 CALM      30.06S
HARRISBURG*    CLOUDY    64  57  76 NE3       30.08S
ROBINSON*      PTSUNNY   74  55  52 SE5       30.06S
CARMI*         CLOUDY    64  52  63 NE5       30.07S
$$

ABBREVIATIONS USED IN REMARKS
   TC - TEMPERATURE IN CELSIUS
  WCI - WIND CHILL INDEX
   HX - HEAT INDEX
  VSB - VISIBILITY
$$



USA.gov is the U.S. government's official web portal to all federal, state and local government web resources and services.